Showing default

BB4, 57757

Orbit data source: Space-Track

BB4, 57757 is a payload satellite owned by SDA (US) in LEO that was launched on Sat, 02 Sep 2023 UTC via an FALCON 9 launch vehicle from the Air Force Western Test Range (AFWTR). Payload-class satellites include a variety of spacecraft equipped with specific instruments for various scientific and technological missions. These include communications satellites like Starlink; space stations such as the ISS; scientific satellites like the Hubble; Earth observation satellites from companies like Planet Labs, Umbra, and HawkEye 360; GPS; miniature CubeSats for education and research; and military/defense satellites.

Loading next visibility...
Identifier
57757, 2023-133B
Orbit
LEO
Country
Flag of USUS
Related business
Manufacturer
SPX/LEIDOS
Mission
Operational Defense Early Warn
Bus & Motor
STARSHIELD?, Unknown motor
Mass
~800 kg wet, ~800 kg dry
Launch date (UTC)
2023-09-02 (2 years ago)
Launch vehicle
FALCON 9
Launch site
Air Force Western Test Range (AFWTR)
Object type
Payload
Rocket body
Debris
Shape & HBR
Box + 1 Pan, 4.5 m
Radar Cross Section
12.397 m², Large (>1 m²)

Expand to show TLE details & history
Last TLE update: 3 days ago

TLE from 3 days ago
0 BB4
1 57757U 23133B   25344.52170308  .00000110  00000-0  83281-4 0  9995
2 57757  81.0021 188.5049 0008994 151.9374 208.2271 13.87929457114902
Epoch: 2025-12-10T12:31Z
TLE epoch observation values (Epoch: 2025-12-10T12:31:15.146Z)
Latitude
0.00007°
Longitude
-78.79903°
Altitude
944.555 km
Speed
7.377 km/s
True Right ascension
12h 34m 01s
True Declination
0° 00' 00"
Sunlit
Object was in daylight at epoch
Visualization orbit readout
Latitude
Unknown
Longitude
Unknown
Altitude
Unknown
Speed
Unknown
Apparent Right ascension
Unknown
Apparent Declination
Unknown
Sunlit
N/A
Visualization observer readout
Local Sidereal Time
05:22:30
Azimuth
Unknown
Elevation
Unknown
Doppler factor
Unknown
Orbital elements
Apogee altitude
939.687 km
Perigee altitude
926.536 km
Semi-major axis
7,311.248 km
Eccentricity
0.0009
Inclination
81.0021°
RAAN
188.5049°
Arg. of periapsis
151.9374°
True anomaly
208.1784°
Mean anomaly
208.2271°
Eccentric anomaly
208.20275°
Mean motion
3.47181 °/min
Orbital period
103.69 mins
BSTAR
0.000083281
Loading maneuver chart data...
Computing Atmospheric mass density...
Loading historical data...
Loading historical data...
Loading historical data...
Loading historical data...
Loading historical data...
Loading historical data...
Loading historical data...

Documentation

Showing up to 5 results
|